Time,TemperatureF,DewpointF,PressureIn,WindDirection,WindDirectionDegrees,WindSpeedMPH,WindSpeedGustMPH,Humidity,HourlyPrecipIn,Conditions,Clouds,dailyrainin,SoftwareType,DateUTC
2013-02-13 00:00:00,71.9,69.1,29.95,South,175,4.0,8.0,91,0.00,,,0.00,Wunderground v.1.13,2013-02-13 05:00:00,
2013-02-13 00:01:00,71.9,69.1,29.95,SSW,207,3.0,8.0,91,0.00,,,0.00,Wunderground v.1.13,2013-02-13 05:01:00,
2013-02-13 00:05:00,71.9,69.1,29.95,SSW,196,6.0,6.0,91,0.00,,,0.00,Wunderground v.1.13,2013-02-13 05:05:00,
2013-02-13 00:06:00,71.9,69.1,29.95,SSW,203,2.0,6.0,91,0.00,,,0.00,Wunderground v.1.13,2013-02-13 05:06:00,
2013-02-13 00:12:00,71.8,69.0,29.95,South,178,6.0,8.0,91,0.00,,,0.00,Wunderground v.1.13,2013-02-13 05:12:00,
2013-02-13 00:17:00,71.8,69.0,29.94,SW,215,6.0,6.0,91,0.00,,,0.00,Wunderground v.1.13,2013-02-13 05:17:00,
2013-02-13 00:23:00,71.6,68.8,29.95,SSW,210,2.0,8.0,91,0.00,,,0.00,Wunderground v.1.13,2013-02-13 05:23:00,
2013-02-13 00:29:00,71.6,68.8,29.95,SW,222,5.0,5.0,91,0.00,,,0.00,Wunderground v.1.13,2013-02-13 05:29:00,
2013-02-13 00:34:00,71.5,68.7,29.95,South,188,4.0,7.0,91,0.00,,,0.00,Wunderground v.1.13,2013-02-13 05:34:00,
2013-02-13 00:40:00,71.4,68.6,29.95,SSW,200,4.0,4.0,91,0.00,,,0.00,Wunderground v.1.13,2013-02-13 05:40:00,
2013-02-13 00:45:00,71.3,68.5,29.95,South,191,2.0,4.0,91,0.00,,,0.00,Wunderground v.1.13,2013-02-13 05:45:00,
2013-02-13 00:51:00,71.3,68.5,29.95,SW,218,4.0,4.0,91,0.00,,,0.00,Wunderground v.1.13,2013-02-13 05:51:00,
2013-02-13 00:57:00,71.3,68.5,29.95,South,169,5.0,5.0,91,0.00,,,0.00,Wunderground v.1.13,2013-02-13 05:57:00,
2013-02-13 01:03:00,71.2,68.4,29.94,SSW,209,3.0,5.0,91,0.00,,,0.00,Wunderground v.1.13,2013-02-13 06:03:00,
2013-02-13 01:08:00,71.3,68.5,29.94,South,184,1.0,5.0,91,0.00,,,0.00,Wunderground v.1.13,2013-02-13 06:08:00,
2013-02-13 01:14:00,71.2,68.4,29.94,South,182,4.0,4.0,91,0.00,,,0.00,Wunderground v.1.13,2013-02-13 06:14:00,
2013-02-13 01:19:00,71.2,68.4,29.94,SSE,155,2.0,3.0,91,0.00,,,0.00,Wunderground v.1.13,2013-02-13 06:19:00,
2013-02-13 01:25:00,71.2,68.4,29.94,SW,215,2.0,3.0,91,0.00,,,0.00,Wunderground v.1.13,2013-02-13 06:25:00,
2013-02-13 01:30:00,71.2,68.4,29.94,South,190,3.0,3.0,91,0.00,,,0.00,Wunderground v.1.13,2013-02-13 06:30:00,
2013-02-13 01:35:00,71.2,68.4,29.94,South,183,5.0,5.0,91,0.00,,,0.00,Wunderground v.1.13,2013-02-13 06:35:00,
2013-02-13 01:41:00,71.2,68.4,29.94,South,171,0.0,3.0,91,0.00,,,0.00,Wunderground v.1.13,2013-02-13 06:41:00,
2013-02-13 01:46:00,71.2,68.4,29.94,South,188,3.0,5.0,91,0.00,,,0.00,Wunderground v.1.13,2013-02-13 06:46:00,
2013-02-13 01:52:00,71.2,68.4,29.94,SSE,155,1.0,4.0,91,0.00,,,0.00,Wunderground v.1.13,2013-02-13 06:52:00,
2013-02-13 01:58:00,71.1,68.3,29.94,SSW,192,2.0,4.0,91,0.00,,,0.00,Wunderground v.1.13,2013-02-13 06:58:00,
2013-02-13 02:03:00,71.2,68.4,29.93,SSW,199,0.0,4.0,91,0.00,,,0.00,Wunderground v.1.13,2013-02-13 07:03:00,
2013-02-13 02:08:00,71.1,68.3,29.93,SSW,208,2.0,7.0,91,0.00,,,0.00,Wunderground v.1.13,2013-02-13 07:08:00,
2013-02-13 02:13:00,71.1,68.3,29.93,SSW,202,3.0,7.0,91,0.00,,,0.00,Wunderground v.1.13,2013-02-13 07:13:00,
2013-02-13 02:18:00,71.1,68.7,29.93,SE,134,4.0,6.0,92,0.00,,,0.00,Wunderground v.1.13,2013-02-13 07:18:00,
2013-02-13 02:23:00,71.1,68.7,29.93,SSW,193,4.0,6.0,92,0.00,,,0.00,Wunderground v.1.13,2013-02-13 07:23:00,
2013-02-13 02:28:00,71.0,68.6,29.93,SSW,192,5.0,5.0,92,0.00,,,0.00,Wunderground v.1.13,2013-02-13 07:28:00,
2013-02-13 02:33:00,71.0,68.6,29.92,South,172,1.0,7.0,92,0.00,,,0.00,Wunderground v.1.13,2013-02-13 07:33:00,
2013-02-13 02:39:00,71.0,68.6,29.93,SSW,193,5.0,6.0,92,0.00,,,0.00,Wunderground v.1.13,2013-02-13 07:39:00,
2013-02-13 02:44:00,71.0,68.6,29.93,SSW,192,4.0,11.0,92,0.00,,,0.00,Wunderground v.1.13,2013-02-13 07:44:00,
2013-02-13 02:49:00,71.0,68.6,29.92,SE,144,0.0,7.0,92,0.00,,,0.00,Wunderground v.1.13,2013-02-13 07:49:00,
2013-02-13 02:54:00,70.8,68.4,29.93,South,191,4.0,7.0,92,0.00,,,0.00,Wunderground v.1.13,2013-02-13 07:54:00,
2013-02-13 02:59:00,70.8,68.4,29.92,South,171,5.0,11.0,92,0.00,,,0.00,Wunderground v.1.13,2013-02-13 07:59:00,
2013-02-13 03:05:00,70.8,68.4,29.92,South,171,3.0,4.0,92,0.00,,,0.00,Wunderground v.1.13,2013-02-13 08:05:00,
2013-02-13 03:10:00,70.7,68.3,29.92,South,185,2.0,4.0,92,0.00,,,0.00,Wunderground v.1.13,2013-02-13 08:10:00,
2013-02-13 03:15:00,70.7,68.3,29.92,SSE,167,1.0,3.0,92,0.00,,,0.00,Wunderground v.1.13,2013-02-13 08:15:00,
2013-02-13 03:20:00,70.7,68.3,29.92,SE,130,6.0,6.0,92,0.00,,,0.00,Wunderground v.1.13,2013-02-13 08:20:00,
2013-02-13 03:25:00,70.7,68.3,29.92,SSW,194,2.0,6.0,92,0.00,,,0.00,Wunderground v.1.13,2013-02-13 08:25:00,
2013-02-13 03:30:00,70.6,68.2,29.91,SSE,152,2.0,4.0,92,0.00,,,0.00,Wunderground v.1.13,2013-02-13 08:30:00,
2013-02-13 03:36:00,70.6,68.2,29.91,South,176,4.0,6.0,92,0.00,,,0.00,Wunderground v.1.13,2013-02-13 08:36:00,
2013-02-13 03:41:00,70.6,68.2,29.91,SSE,154,4.0,6.0,92,0.00,,,0.00,Wunderground v.1.13,2013-02-13 08:41:00,
2013-02-13 03:46:00,70.6,68.2,29.91,SE,137,3.0,5.0,92,0.00,,,0.00,Wunderground v.1.13,2013-02-13 08:46:00,
2013-02-13 03:51:00,70.6,68.2,29.91,South,182,4.0,4.0,92,0.00,,,0.00,Wunderground v.1.13,2013-02-13 08:51:00,
2013-02-13 03:56:00,70.6,68.2,29.91,SSW,195,4.0,4.0,92,0.00,,,0.00,Wunderground v.1.13,2013-02-13 08:56:00,
2013-02-13 04:02:00,70.5,68.1,29.91,SSW,209,0.0,5.0,92,0.00,,,0.00,Wunderground v.1.13,2013-02-13 09:02:00,
2013-02-13 04:07:00,70.6,68.2,29.91,South,169,0.0,9.0,92,0.00,,,0.00,Wunderground v.1.13,2013-02-13 09:07:00,
2013-02-13 04:12:00,70.6,68.2,29.91,South,188,3.0,6.0,92,0.00,,,0.00,Wunderground v.1.13,2013-02-13 09:12:00,
2013-02-13 04:17:00,70.6,68.2,29.91,SSE,150,3.0,9.0,92,0.00,,,0.00,Wunderground v.1.13,2013-02-13 09:17:00,
2013-02-13 04:22:00,70.5,68.1,29.91,SW,221,9.0,9.0,92,0.00,,,0.00,Wunderground v.1.13,2013-02-13 09:22:00,
2013-02-13 04:27:00,70.5,68.1,29.91,South,175,11.0,11.0,92,0.00,,,0.00,Wunderground v.1.13,2013-02-13 09:27:00,
2013-02-13 04:33:00,70.5,68.1,29.91,SSW,211,5.0,7.0,92,0.00,,,0.00,Wunderground v.1.13,2013-02-13 09:33:00,
2013-02-13 04:38:00,70.5,68.1,29.91,SSW,211,3.0,10.0,92,0.00,,,0.00,Wunderground v.1.13,2013-02-13 09:38:00,
2013-02-13 04:43:00,70.5,68.1,29.91,SSE,163,3.0,6.0,92,0.00,,,0.00,Wunderground v.1.13,2013-02-13 09:43:00,
2013-02-13 04:48:00,70.5,68.1,29.91,South,180,4.0,5.0,92,0.00,,,0.00,Wunderground v.1.13,2013-02-13 09:48:00,
2013-02-13 04:53:00,70.5,68.1,29.91,South,188,5.0,5.0,92,0.00,,,0.00,Wunderground v.1.13,2013-02-13 09:53:00,
2013-02-13 04:58:00,70.5,68.1,29.91,SSW,200,5.0,12.0,92,0.00,,,0.00,Wunderground v.1.13,2013-02-13 09:58:00,
2013-02-13 05:03:00,70.5,68.1,29.91,South,181,4.0,8.0,92,0.00,,,0.00,Wunderground v.1.13,2013-02-13 10:03:00,
2013-02-13 05:08:00,70.5,68.1,29.91,SSW,192,9.0,10.0,92,0.00,,,0.00,Wunderground v.1.13,2013-02-13 10:08:00,
2013-02-13 05:13:00,70.5,68.1,29.91,SSW,211,3.0,7.0,92,0.00,,,0.00,Wunderground v.1.13,2013-02-13 10:13:00,
2013-02-13 05:18:00,70.5,68.1,29.90,South,173,2.0,9.0,92,0.00,,,0.00,Wunderground v.1.13,2013-02-13 10:18:00,
2013-02-13 05:24:00,70.5,68.1,29.90,SSE,154,3.0,10.0,92,0.00,,,0.00,Wunderground v.1.13,2013-02-13 10:24:00,
2013-02-13 05:29:00,70.4,68.0,29.90,South,171,3.0,6.0,92,0.00,,,0.00,Wunderground v.1.13,2013-02-13 10:29:00,
2013-02-13 05:34:00,70.4,68.0,29.90,SSW,200,3.0,9.0,92,0.00,,,0.00,Wunderground v.1.13,2013-02-13 10:34:00,
2013-02-13 05:39:00,70.5,68.1,29.90,SW,215,7.0,10.0,92,0.00,,,0.00,Wunderground v.1.13,2013-02-13 10:39:00,
2013-02-13 05:44:00,70.5,68.1,29.91,South,188,3.0,6.0,92,0.00,,,0.00,Wunderground v.1.13,2013-02-13 10:44:00,
2013-02-13 05:49:00,70.6,68.2,29.91,South,190,4.0,4.0,92,0.00,,,0.00,Wunderground v.1.13,2013-02-13 10:49:00,
2013-02-13 05:55:00,70.7,68.3,29.91,SSE,155,3.0,4.0,92,0.00,,,0.00,Wunderground v.1.13,2013-02-13 10:55:00,
2013-02-13 06:00:00,70.7,68.3,29.91,SSE,157,2.0,4.0,92,0.00,,,0.00,Wunderground v.1.13,2013-02-13 11:00:00,
2013-02-13 06:05:00,70.8,68.4,29.91,SSE,163,0.0,3.0,92,0.00,,,0.00,Wunderground v.1.13,2013-02-13 11:05:00,
2013-02-13 06:10:00,70.9,68.5,29.91,South,190,3.0,5.0,92,0.00,,,0.00,Wunderground v.1.13,2013-02-13 11:10:00,
2013-02-13 06:15:00,71.0,68.6,29.91,SSW,202,4.0,4.0,92,0.00,,,0.00,Wunderground v.1.13,2013-02-13 11:15:00,
2013-02-13 06:20:00,71.0,68.6,29.91,SSW,203,5.0,10.0,92,0.00,,,0.00,Wunderground v.1.13,2013-02-13 11:20:00,
2013-02-13 06:25:00,71.1,68.7,29.91,SSW,201,3.0,3.0,92,0.00,,,0.00,Wunderground v.1.13,2013-02-13 11:25:00,
2013-02-13 06:30:00,71.2,68.8,29.92,SSW,202,5.0,6.0,92,0.00,,,0.00,Wunderground v.1.13,2013-02-13 11:30:00,
2013-02-13 06:36:00,71.2,68.8,29.92,SW,221,6.0,10.0,92,0.00,,,0.00,Wunderground v.1.13,2013-02-13 11:36:00,
2013-02-13 06:41:00,71.2,68.8,29.92,South,182,6.0,12.0,92,0.00,,,0.00,Wunderground v.1.13,2013-02-13 11:41:00,
2013-02-13 06:46:00,71.2,68.8,29.92,SW,225,7.0,7.0,92,0.00,,,0.00,Wunderground v.1.13,2013-02-13 11:46:00,
2013-02-13 06:51:00,71.1,69.0,29.92,South,184,4.0,7.0,93,0.00,,,0.00,Wunderground v.1.13,2013-02-13 11:51:00,
2013-02-13 06:56:00,70.9,68.8,29.92,SSW,194,6.0,6.0,93,0.00,,,0.00,Wunderground v.1.13,2013-02-13 11:56:00,
2013-02-13 07:01:00,70.8,68.7,29.92,SSW,211,4.0,9.0,93,0.00,,,0.00,Wunderground v.1.13,2013-02-13 12:01:00,
2013-02-13 07:06:00,70.7,68.6,29.92,SSE,156,1.0,5.0,93,0.00,,,0.00,Wunderground v.1.13,2013-02-13 12:06:00,
2013-02-13 07:11:00,70.7,68.6,29.92,SW,222,5.0,6.0,93,0.00,,,0.00,Wunderground v.1.13,2013-02-13 12:11:00,
2013-02-13 07:17:00,70.7,68.6,29.92,SSW,198,2.0,7.0,93,0.00,,,0.00,Wunderground v.1.13,2013-02-13 12:17:00,
2013-02-13 07:22:00,70.7,68.6,29.92,SE,146,0.0,7.0,93,0.00,,,0.00,Wunderground v.1.13,2013-02-13 12:22:00,
2013-02-13 07:27:00,70.7,68.9,29.93,SSW,205,0.0,10.0,94,0.00,,,0.00,Wunderground v.1.13,2013-02-13 12:27:00,
2013-02-13 07:32:00,70.7,68.9,29.93,South,184,3.0,6.0,94,0.00,,,0.00,Wunderground v.1.13,2013-02-13 12:32:00,
2013-02-13 07:37:00,70.8,69.0,29.93,SSW,203,4.0,9.0,94,0.00,,,0.00,Wunderground v.1.13,2013-02-13 12:37:00,
2013-02-13 07:42:00,70.8,69.0,29.93,SSW,202,2.0,8.0,94,0.00,,,0.00,Wunderground v.1.13,2013-02-13 12:42:00,
2013-02-13 07:47:00,70.8,69.0,29.93,SSW,192,5.0,10.0,94,0.00,,,0.00,Wunderground v.1.13,2013-02-13 12:47:00,
2013-02-13 07:52:00,70.8,69.0,29.94,SW,222,2.0,7.0,94,0.00,,,0.00,Wunderground v.1.13,2013-02-13 12:52:00,
2013-02-13 07:57:00,70.8,69.0,29.94,SW,221,3.0,5.0,94,0.00,,,0.00,Wunderground v.1.13,2013-02-13 12:57:00,
2013-02-13 08:03:00,70.8,69.0,29.94,SSE,167,1.0,7.0,94,0.00,,,0.00,Wunderground v.1.13,2013-02-13 13:03:00,
2013-02-13 08:08:00,70.8,69.0,29.94,SSW,213,10.0,10.0,94,0.00,,,0.00,Wunderground v.1.13,2013-02-13 13:08:00,
2013-02-13 08:13:00,70.8,69.0,29.94,South,185,5.0,11.0,94,0.00,,,0.00,Wunderground v.1.13,2013-02-13 13:13:00,
2013-02-13 08:18:00,70.9,69.1,29.94,SSW,213,5.0,11.0,94,0.00,,,0.00,Wunderground v.1.13,2013-02-13 13:18:00,
2013-02-13 08:23:00,71.0,69.2,29.94,SSW,193,5.0,7.0,94,0.00,,,0.00,Wunderground v.1.13,2013-02-13 13:23:00,
2013-02-13 08:28:00,71.1,69.3,29.94,SW,220,2.0,12.0,94,0.00,,,0.00,Wunderground v.1.13,2013-02-13 13:28:00,
2013-02-13 08:33:00,71.2,69.4,29.94,SSE,159,2.0,15.0,94,0.00,,,0.00,Wunderground v.1.13,2013-02-13 13:33:00,
2013-02-13 08:38:00,71.3,69.5,29.95,SSW,212,7.0,9.0,94,0.00,,,0.00,Wunderground v.1.13,2013-02-13 13:38:00,
2013-02-13 08:43:00,71.4,69.6,29.95,South,190,1.0,7.0,94,0.00,,,0.00,Wunderground v.1.13,2013-02-13 13:43:00,
2013-02-13 08:49:00,71.6,69.8,29.95,SW,215,1.0,7.0,94,0.00,,,0.00,Wunderground v.1.13,2013-02-13 13:49:00,
2013-02-13 08:54:00,71.7,69.9,29.95,SSW,199,12.0,12.0,94,0.00,,,0.00,Wunderground v.1.13,2013-02-13 13:54:00,
2013-02-13 08:59:00,71.7,69.9,29.95,SSW,211,6.0,15.0,94,0.00,,,0.00,Wunderground v.1.13,2013-02-13 13:59:00,
2013-02-13 09:04:00,71.9,70.1,29.95,SSE,168,6.0,11.0,94,0.00,,,0.00,Wunderground v.1.13,2013-02-13 14:04:00,
2013-02-13 09:09:00,72.2,70.1,29.95,SSW,193,3.0,10.0,93,0.00,,,0.00,Wunderground v.1.13,2013-02-13 14:09:00,
2013-02-13 09:14:00,72.5,70.4,29.94,South,169,2.0,7.0,93,0.00,,,0.00,Wunderground v.1.13,2013-02-13 14:14:00,
2013-02-13 09:19:00,72.7,70.2,29.95,SSW,213,0.0,14.0,92,0.00,,,0.00,Wunderground v.1.13,2013-02-13 14:19:00,
2013-02-13 09:24:00,73.0,70.5,29.95,SSW,205,9.0,10.0,92,0.00,,,0.00,Wunderground v.1.13,2013-02-13 14:24:00,
2013-02-13 09:29:00,73.1,70.3,29.95,SSW,196,3.0,7.0,91,0.00,,,0.00,Wunderground v.1.13,2013-02-13 14:29:00,
2013-02-13 09:34:00,73.2,70.1,29.95,SSW,209,2.0,12.0,90,0.00,,,0.00,Wunderground v.1.13,2013-02-13 14:34:00,
2013-02-13 09:40:00,73.3,70.2,29.95,SSW,200,5.0,6.0,90,0.00,,,0.00,Wunderground v.1.13,2013-02-13 14:40:00,
2013-02-13 09:45:00,73.4,70.3,29.95,SW,219,6.0,6.0,90,0.00,,,0.00,Wunderground v.1.13,2013-02-13 14:45:00,
2013-02-13 09:50:00,73.4,70.3,29.95,SSW,200,5.0,6.0,90,0.00,,,0.00,Wunderground v.1.13,2013-02-13 14:50:00,
2013-02-13 09:55:00,73.6,70.5,29.95,SSW,207,5.0,5.0,90,0.00,,,0.00,Wunderground v.1.13,2013-02-13 14:55:00,
2013-02-13 10:00:00,73.8,70.7,29.95,SW,224,6.0,6.0,90,0.00,,,0.00,Wunderground v.1.13,2013-02-13 15:00:00,
2013-02-13 10:05:00,73.9,70.5,29.95,SSE,161,3.0,5.0,89,0.00,,,0.00,Wunderground v.1.13,2013-02-13 15:05:00,
2013-02-13 10:11:00,73.9,70.5,29.95,South,190,5.0,11.0,89,0.00,,,0.00,Wunderground v.1.13,2013-02-13 15:11:00,
2013-02-13 10:16:00,74.0,70.6,29.95,SSE,165,7.0,15.0,89,0.00,,,0.00,Wunderground v.1.13,2013-02-13 15:16:00,
2013-02-13 10:21:00,74.3,70.8,29.95,South,190,7.0,7.0,89,0.00,,,0.00,Wunderground v.1.13,2013-02-13 15:21:00,
2013-02-13 10:26:00,74.4,70.6,29.95,South,172,5.0,5.0,88,0.00,,,0.00,Wunderground v.1.13,2013-02-13 15:26:00,
2013-02-13 10:31:00,74.4,70.6,29.95,SSW,209,9.0,9.0,88,0.00,,,0.00,Wunderground v.1.13,2013-02-13 15:31:00,
2013-02-13 10:36:00,74.2,70.4,29.95,SW,231,13.0,13.0,88,0.00,,,0.00,Wunderground v.1.13,2013-02-13 15:36:00,
2013-02-13 10:41:00,74.2,70.4,29.95,South,190,3.0,15.0,88,0.00,,,0.00,Wunderground v.1.13,2013-02-13 15:41:00,
2013-02-13 10:46:00,74.3,70.5,29.95,SSE,160,6.0,6.0,88,0.00,,,0.00,Wunderground v.1.13,2013-02-13 15:46:00,
2013-02-13 10:51:00,74.4,70.6,29.94,SSW,204,4.0,21.0,88,0.00,,,0.00,Wunderground v.1.13,2013-02-13 15:51:00,
2013-02-13 10:56:00,74.5,70.7,29.94,SSE,155,8.0,10.0,88,0.00,,,0.00,Wunderground v.1.13,2013-02-13 15:56:00,
2013-02-13 11:01:00,74.5,70.7,29.94,South,171,15.0,15.0,88,0.00,,,0.00,Wunderground v.1.13,2013-02-13 16:01:00,
2013-02-13 11:06:00,74.3,70.5,29.94,SSW,209,4.0,14.0,88,0.00,,,0.00,Wunderground v.1.13,2013-02-13 16:06:00,
2013-02-13 11:11:00,74.4,70.9,29.93,SSW,193,9.0,16.0,89,0.00,,,0.00,Wunderground v.1.13,2013-02-13 16:11:00,
2013-02-13 11:17:00,74.3,70.8,29.93,SSW,212,4.0,8.0,89,0.00,,,0.00,Wunderground v.1.13,2013-02-13 16:17:00,
2013-02-13 11:22:00,74.6,71.1,29.94,SSW,213,7.0,10.0,89,0.00,,,0.00,Wunderground v.1.13,2013-02-13 16:22:00,
2013-02-13 11:27:00,74.5,70.7,29.93,SSE,164,5.0,11.0,88,0.00,,,0.00,Wunderground v.1.13,2013-02-13 16:27:00,
2013-02-13 11:32:00,74.5,70.7,29.94,SSE,152,7.0,13.0,88,0.00,,,0.00,Wunderground v.1.13,2013-02-13 16:32:00,
2013-02-13 11:37:00,74.6,70.8,29.93,SSW,202,4.0,11.0,88,0.00,,,0.00,Wunderground v.1.13,2013-02-13 16:37:00,
2013-02-13 11:42:00,75.1,71.3,29.93,SW,232,14.0,14.0,88,0.00,,,0.00,Wunderground v.1.13,2013-02-13 16:42:00,
2013-02-13 11:47:00,75.5,71.4,29.93,SSE,149,7.0,12.0,87,0.00,,,0.00,Wunderground v.1.13,2013-02-13 16:47:00,
2013-02-13 11:52:00,75.9,71.4,29.93,SSE,153,11.0,16.0,86,0.00,,,0.00,Wunderground v.1.13,2013-02-13 16:52:00,
2013-02-13 11:57:00,76.2,71.4,29.93,SW,236,7.0,14.0,85,0.00,,,0.00,Wunderground v.1.13,2013-02-13 16:57:00,
2013-02-13 12:03:00,76.4,71.6,29.92,South,190,3.0,12.0,85,0.00,,,0.00,Wunderground v.1.13,2013-02-13 17:03:00,
2013-02-13 12:08:00,76.9,72.0,29.92,SW,230,5.0,8.0,85,0.00,,,0.00,Wunderground v.1.13,2013-02-13 17:08:00,
2013-02-13 12:13:00,77.3,71.7,29.92,SSW,196,10.0,13.0,83,0.00,,,0.00,Wunderground v.1.13,2013-02-13 17:13:00,
2013-02-13 12:18:00,77.7,72.1,29.92,SW,236,4.0,13.0,83,0.00,,,0.00,Wunderground v.1.13,2013-02-13 17:18:00,
2013-02-13 12:23:00,78.1,71.8,29.92,SSW,195,12.0,15.0,81,0.00,,,0.00,Wunderground v.1.13,2013-02-13 17:23:00,
2013-02-13 12:29:00,77.8,71.9,29.92,SSW,203,7.0,19.0,82,0.00,,,0.00,Wunderground v.1.13,2013-02-13 17:29:00,
2013-02-13 12:34:00,78.1,72.2,29.91,SSW,203,7.0,16.0,82,0.00,,,0.00,Wunderground v.1.13,2013-02-13 17:34:00,
2013-02-13 12:39:00,78.3,72.0,29.91,SSW,198,9.0,14.0,81,0.00,,,0.00,Wunderground v.1.13,2013-02-13 17:39:00,
2013-02-13 12:44:00,78.4,71.7,29.91,SSE,155,7.0,16.0,80,0.00,,,0.00,Wunderground v.1.13,2013-02-13 17:44:00,
2013-02-13 12:49:00,78.7,72.0,29.91,SSW,211,14.0,23.0,80,0.00,,,0.00,Wunderground v.1.13,2013-02-13 17:49:00,
2013-02-13 12:54:00,78.6,71.9,29.90,SW,215,14.0,18.0,80,0.00,,,0.00,Wunderground v.1.13,2013-02-13 17:54:00,
2013-02-13 12:59:00,78.7,72.0,29.90,South,171,6.0,18.0,80,0.00,,,0.00,Wunderground v.1.13,2013-02-13 17:59:00,
2013-02-13 13:05:00,78.7,72.0,29.90,SSE,150,12.0,12.0,80,0.00,,,0.00,Wunderground v.1.13,2013-02-13 18:05:00,
2013-02-13 13:10:00,79.1,72.0,29.89,SSW,211,5.0,8.0,79,0.00,,,0.00,Wunderground v.1.13,2013-02-13 18:10:00,
2013-02-13 13:15:00,79.1,72.4,29.89,SSE,151,9.0,9.0,80,0.00,,,0.00,Wunderground v.1.13,2013-02-13 18:15:00,
2013-02-13 13:20:00,79.3,72.2,29.89,South,172,8.0,13.0,79,0.00,,,0.00,Wunderground v.1.13,2013-02-13 18:20:00,
2013-02-13 13:25:00,78.7,72.0,29.89,SSE,155,5.0,8.0,80,0.00,,,0.00,Wunderground v.1.13,2013-02-13 18:25:00,
2013-02-13 13:30:00,78.8,72.1,29.89,SW,232,5.0,9.0,80,0.00,,,0.00,Wunderground v.1.13,2013-02-13 18:30:00,
2013-02-13 13:35:00,79.5,72.8,29.89,South,183,4.0,7.0,80,0.00,,,0.00,Wunderground v.1.13,2013-02-13 18:35:00,
2013-02-13 13:40:00,79.9,72.4,29.89,SW,214,8.0,16.0,78,0.00,,,0.00,Wunderground v.1.13,2013-02-13 18:40:00,
2013-02-13 13:45:00,79.7,72.6,29.88,South,173,4.0,9.0,79,0.00,,,0.00,Wunderground v.1.13,2013-02-13 18:45:00,
2013-02-13 13:50:00,79.8,72.7,29.88,WSW,254,20.0,20.0,79,0.00,,,0.00,Wunderground v.1.13,2013-02-13 18:50:00,
2013-02-13 13:56:00,79.6,72.5,29.88,ESE,115,4.0,8.0,79,0.00,,,0.00,Wunderground v.1.13,2013-02-13 18:56:00,
2013-02-13 14:01:00,79.2,72.1,29.88,WSW,240,12.0,16.0,79,0.00,,,0.00,Wunderground v.1.13,2013-02-13 19:01:00,
2013-02-13 14:06:00,78.5,72.2,29.88,SSW,209,9.0,10.0,81,0.00,,,0.00,Wunderground v.1.13,2013-02-13 19:06:00,
2013-02-13 14:11:00,78.1,71.8,29.88,South,176,5.0,17.0,81,0.00,,,0.00,Wunderground v.1.13,2013-02-13 19:11:00,
2013-02-13 14:16:00,77.9,71.6,29.88,South,171,5.0,12.0,81,0.00,,,0.00,Wunderground v.1.13,2013-02-13 19:16:00,
2013-02-13 14:21:00,77.6,71.7,29.88,South,189,9.0,13.0,82,0.00,,,0.00,Wunderground v.1.13,2013-02-13 19:21:00,
2013-02-13 14:26:00,77.2,71.6,29.88,SSW,206,8.0,13.0,83,0.00,,,0.00,Wunderground v.1.13,2013-02-13 19:26:00,
2013-02-13 14:31:00,77.0,71.8,29.87,SSW,206,4.0,10.0,84,0.00,,,0.00,Wunderground v.1.13,2013-02-13 19:31:00,
2013-02-13 14:36:00,77.2,71.6,29.87,SSW,205,5.0,11.0,83,0.00,,,0.00,Wunderground v.1.13,2013-02-13 19:36:00,
2013-02-13 14:41:00,77.0,71.8,29.87,SSE,158,4.0,10.0,84,0.00,,,0.00,Wunderground v.1.13,2013-02-13 19:41:00,
2013-02-13 14:46:00,76.9,71.7,29.87,SSW,194,6.0,13.0,84,0.00,,,0.00,Wunderground v.1.13,2013-02-13 19:46:00,
2013-02-13 14:51:00,76.9,71.7,29.87,SW,221,7.0,9.0,84,0.00,,,0.00,Wunderground v.1.13,2013-02-13 19:51:00,
2013-02-13 14:56:00,77.1,71.9,29.86,SW,229,5.0,13.0,84,0.00,,,0.00,Wunderground v.1.13,2013-02-13 19:56:00,
2013-02-13 15:01:00,77.1,71.5,29.87,SE,130,12.0,16.0,83,0.00,,,0.00,Wunderground v.1.13,2013-02-13 20:01:00,
2013-02-13 15:07:00,77.3,72.1,29.86,South,178,13.0,13.0,84,0.00,,,0.00,Wunderground v.1.13,2013-02-13 20:07:00,
2013-02-13 15:12:00,77.5,72.3,29.86,SSW,208,4.0,16.0,84,0.00,,,0.00,Wunderground v.1.13,2013-02-13 20:12:00,
2013-02-13 15:17:00,77.6,72.0,29.86,WSW,238,7.0,14.0,83,0.00,,,0.00,Wunderground v.1.13,2013-02-13 20:17:00,
2013-02-13 15:22:00,77.6,72.0,29.86,SW,215,4.0,17.0,83,0.00,,,0.00,Wunderground v.1.13,2013-02-13 20:22:00,
2013-02-13 15:27:00,77.6,72.0,29.86,SSW,200,7.0,25.0,83,0.00,,,0.00,Wunderground v.1.13,2013-02-13 20:27:00,
2013-02-13 15:32:00,77.8,72.2,29.86,SSE,157,2.0,12.0,83,0.00,,,0.00,Wunderground v.1.13,2013-02-13 20:32:00,
2013-02-13 15:37:00,77.8,72.2,29.86,SSE,167,12.0,12.0,83,0.00,,,0.00,Wunderground v.1.13,2013-02-13 20:37:00,
2013-02-13 15:43:00,77.7,72.1,29.86,SSE,163,5.0,11.0,83,0.00,,,0.00,Wunderground v.1.13,2013-02-13 20:43:00,
2013-02-13 15:48:00,77.8,72.2,29.85,SSE,168,2.0,12.0,83,0.00,,,0.00,Wunderground v.1.13,2013-02-13 20:48:00,
2013-02-13 15:53:00,77.6,72.0,29.85,SSW,203,6.0,17.0,83,0.00,,,0.00,Wunderground v.1.13,2013-02-13 20:53:00,
2013-02-13 15:58:00,77.5,71.9,29.85,WSW,237,5.0,11.0,83,0.00,,,0.00,Wunderground v.1.13,2013-02-13 20:58:00,
2013-02-13 16:03:00,77.4,72.2,29.85,SSW,204,11.0,12.0,84,0.00,,,0.00,Wunderground v.1.13,2013-02-13 21:03:00,
2013-02-13 16:08:00,77.4,72.2,29.85,SSW,209,6.0,14.0,84,0.00,,,0.00,Wunderground v.1.13,2013-02-13 21:08:00,
2013-02-13 16:13:00,77.5,72.3,29.85,SW,223,5.0,11.0,84,0.00,,,0.00,Wunderground v.1.13,2013-02-13 21:13:00,
2013-02-13 16:18:00,77.3,72.1,29.85,SSE,168,9.0,17.0,84,0.00,,,0.00,Wunderground v.1.13,2013-02-13 21:18:00,
2013-02-13 16:23:00,77.1,71.9,29.86,SW,218,13.0,16.0,84,0.00,,,0.00,Wunderground v.1.13,2013-02-13 21:23:00,
2013-02-13 16:28:00,77.0,72.1,29.86,SE,142,12.0,13.0,85,0.00,,,0.00,Wunderground v.1.13,2013-02-13 21:28:00,
2013-02-13 16:34:00,76.7,71.8,29.86,SSW,205,8.0,17.0,85,0.00,,,0.00,Wunderground v.1.13,2013-02-13 21:34:00,
2013-02-13 16:39:00,76.6,71.7,29.86,South,169,6.0,9.0,85,0.00,,,0.00,Wunderground v.1.13,2013-02-13 21:39:00,
2013-02-13 16:44:00,76.6,71.7,29.86,WSW,237,6.0,16.0,85,0.00,,,0.00,Wunderground v.1.13,2013-02-13 21:44:00,
2013-02-13 16:49:00,76.4,71.9,29.86,SW,224,10.0,10.0,86,0.00,,,0.00,Wunderground v.1.13,2013-02-13 21:49:00,
2013-02-13 16:54:00,76.4,71.9,29.85,SSW,212,7.0,13.0,86,0.00,,,0.00,Wunderground v.1.13,2013-02-13 21:54:00,
2013-02-13 16:59:00,76.4,71.9,29.86,SW,215,4.0,14.0,86,0.00,,,0.00,Wunderground v.1.13,2013-02-13 21:59:00,
2013-02-13 17:04:00,76.6,72.1,29.86,SSW,206,8.0,15.0,86,0.00,,,0.00,Wunderground v.1.13,2013-02-13 22:04:00,
2013-02-13 17:09:00,76.7,72.2,29.86,SSW,211,8.0,14.0,86,0.00,,,0.00,Wunderground v.1.13,2013-02-13 22:09:00,
2013-02-13 17:14:00,76.6,72.1,29.86,SSW,196,9.0,14.0,86,0.00,,,0.00,Wunderground v.1.13,2013-02-13 22:14:00,
2013-02-13 17:19:00,76.5,72.0,29.86,SSW,197,7.0,7.0,86,0.00,,,0.00,Wunderground v.1.13,2013-02-13 22:19:00,
2013-02-13 17:25:00,76.4,71.9,29.86,SSW,209,9.0,9.0,86,0.00,,,0.00,Wunderground v.1.13,2013-02-13 22:25:00,
2013-02-13 17:30:00,76.3,71.8,29.86,South,175,6.0,6.0,86,0.00,,,0.00,Wunderground v.1.13,2013-02-13 22:30:00,
2013-02-13 17:35:00,76.1,71.6,29.86,South,186,4.0,6.0,86,0.00,,,0.00,Wunderground v.1.13,2013-02-13 22:35:00,
2013-02-13 17:40:00,75.8,71.3,29.86,South,170,3.0,10.0,86,0.00,,,0.00,Wunderground v.1.13,2013-02-13 22:40:00,
2013-02-13 17:45:00,75.5,71.4,29.86,South,176,5.0,7.0,87,0.00,,,0.00,Wunderground v.1.13,2013-02-13 22:45:00,
2013-02-13 17:50:00,75.3,71.2,29.86,South,171,4.0,6.0,87,0.00,,,0.00,Wunderground v.1.13,2013-02-13 22:50:00,
2013-02-13 17:55:00,75.1,71.0,29.86,South,178,5.0,9.0,87,0.00,,,0.00,Wunderground v.1.13,2013-02-13 22:55:00,
2013-02-13 18:00:00,75.1,71.3,29.86,South,170,1.0,10.0,88,0.00,,,0.00,Wunderground v.1.13,2013-02-13 23:00:00,
2013-02-13 18:06:00,75.0,71.2,29.85,SSW,202,4.0,9.0,88,0.00,,,0.00,Wunderground v.1.13,2013-02-13 23:06:00,
2013-02-13 18:11:00,74.9,71.1,29.86,SSW,192,12.0,12.0,88,0.00,,,0.00,Wunderground v.1.13,2013-02-13 23:11:00,
2013-02-13 18:16:00,74.8,71.0,29.86,South,180,3.0,8.0,88,0.00,,,0.00,Wunderground v.1.13,2013-02-13 23:16:00,
2013-02-13 18:21:00,74.7,70.9,29.86,South,188,7.0,10.0,88,0.00,,,0.00,Wunderground v.1.13,2013-02-13 23:21:00,
2013-02-13 18:26:00,74.7,70.9,29.86,SW,219,5.0,10.0,88,0.00,,,0.00,Wunderground v.1.13,2013-02-13 23:26:00,
2013-02-13 18:31:00,74.6,71.1,29.86,SSW,213,7.0,7.0,89,0.00,,,0.00,Wunderground v.1.13,2013-02-13 23:31:00,
2013-02-13 18:36:00,74.5,71.0,29.86,SW,218,4.0,12.0,89,0.00,,,0.00,Wunderground v.1.13,2013-02-13 23:36:00,
2013-02-13 18:41:00,74.4,70.9,29.87,South,186,2.0,6.0,89,0.00,,,0.00,Wunderground v.1.13,2013-02-13 23:41:00,
2013-02-13 18:47:00,74.4,70.9,29.87,SSW,204,5.0,10.0,89,0.00,,,0.00,Wunderground v.1.13,2013-02-13 23:47:00,
2013-02-13 18:52:00,74.5,71.0,29.88,SW,236,5.0,10.0,89,0.00,,,0.00,Wunderground v.1.13,2013-02-13 23:52:00,
2013-02-13 18:57:00,74.5,71.0,29.88,SW,217,3.0,6.0,89,0.00,,,0.00,Wunderground v.1.13,2013-02-13 23:57:00,
2013-02-13 19:02:00,71.6,66.2,29.90,WNW,302,6.0,11.0,83,0.00,,,0.00,Wunderground v.1.13,2013-02-14 00:02:00,
2013-02-13 19:07:00,67.5,62.2,29.91,WNW,303,20.0,20.0,83,0.00,,,0.00,Wunderground v.1.13,2013-02-14 00:07:00,
2013-02-13 19:12:00,65.2,60.2,29.93,NW,322,10.0,18.0,84,0.37,,,0.03,Wunderground v.1.13,2013-02-14 00:12:00,
2013-02-13 19:17:00,63.7,59.4,29.93,NNW,330,10.0,11.0,86,0.45,,,0.10,Wunderground v.1.13,2013-02-14 00:17:00,
2013-02-13 19:22:00,62.8,58.9,29.93,NW,314,5.0,9.0,87,0.30,,,0.12,Wunderground v.1.13,2013-02-14 00:22:00,
2013-02-13 19:28:00,62.4,58.8,29.95,West,278,4.0,10.0,88,0.14,,,0.13,Wunderground v.1.13,2013-02-14 00:28:00,
2013-02-13 19:33:00,62.4,59.1,29.95,West,279,5.0,5.0,89,0.07,,,0.14,Wunderground v.1.13,2013-02-14 00:33:00,
2013-02-13 19:38:00,62.4,59.1,29.95,NW,304,0.0,6.0,89,0.07,,,0.14,Wunderground v.1.13,2013-02-14 00:38:00,
2013-02-13 19:43:00,62.4,59.1,29.95,NNW,332,2.0,10.0,89,0.05,,,0.14,Wunderground v.1.13,2013-02-14 00:43:00,
2013-02-13 19:48:00,62.3,59.0,29.95,NW,304,4.0,8.0,89,0.04,,,0.14,Wunderground v.1.13,2013-02-14 00:48:00,
2013-02-13 19:53:00,62.0,58.7,29.95,NNW,331,0.0,12.0,89,0.00,,,0.14,Wunderground v.1.13,2013-02-14 00:53:00,
2013-02-13 19:58:00,61.8,58.5,29.94,North,360,3.0,9.0,89,0.00,,,0.14,Wunderground v.1.13,2013-02-14 00:58:00,
2013-02-13 20:03:00,61.7,58.1,29.94,North,350,3.0,6.0,88,0.00,,,0.14,Wunderground v.1.13,2013-02-14 01:03:00,
2013-02-13 20:08:00,61.7,58.1,29.95,NW,313,6.0,7.0,88,0.00,,,0.14,Wunderground v.1.13,2013-02-14 01:08:00,
2013-02-13 20:14:00,61.7,57.8,29.94,NNW,337,4.0,10.0,87,0.00,,,0.14,Wunderground v.1.13,2013-02-14 01:14:00,
2013-02-13 20:19:00,61.8,57.6,29.95,NW,321,0.0,5.0,86,0.00,,,0.14,Wunderground v.1.13,2013-02-14 01:19:00,
2013-02-13 20:24:00,62.0,57.8,29.93,NW,324,10.0,12.0,86,0.00,,,0.14,Wunderground v.1.13,2013-02-14 01:24:00,
2013-02-13 20:29:00,62.2,58.0,29.94,WNW,302,1.0,7.0,86,0.00,,,0.14,Wunderground v.1.13,2013-02-14 01:29:00,
2013-02-13 20:34:00,62.0,57.4,29.95,NW,309,1.0,9.0,85,0.00,,,0.14,Wunderground v.1.13,2013-02-14 01:34:00,
2013-02-13 20:39:00,61.7,56.5,29.95,North,360,0.0,6.0,83,0.00,,,0.14,Wunderground v.1.13,2013-02-14 01:39:00,
2013-02-13 20:44:00,61.6,56.0,29.94,NNE,14,10.0,10.0,82,0.00,,,0.14,Wunderground v.1.13,2013-02-14 01:44:00,
2013-02-13 20:49:00,61.7,55.5,29.95,North,5,0.0,10.0,80,0.00,,,0.14,Wunderground v.1.13,2013-02-14 01:49:00,
2013-02-13 20:54:00,61.8,55.6,29.95,North,5,4.0,4.0,80,0.00,,,0.14,Wunderground v.1.13,2013-02-14 01:54:00,
2013-02-13 20:59:00,61.9,55.7,29.95,NNW,341,4.0,7.0,80,0.00,,,0.14,Wunderground v.1.13,2013-02-14 01:59:00,
2013-02-13 21:05:00,62.0,55.8,29.95,NNW,342,0.0,1.0,80,0.00,,,0.14,Wunderground v.1.13,2013-02-14 02:05:00,
2013-02-13 21:10:00,62.1,56.2,29.95,NNW,342,0.0,0.0,81,0.00,,,0.14,Wunderground v.1.13,2013-02-14 02:10:00,
2013-02-13 21:15:00,62.2,56.3,29.95,NNW,342,0.0,0.0,81,0.00,,,0.14,Wunderground v.1.13,2013-02-14 02:15:00,
2013-02-13 21:20:00,62.2,56.3,29.96,NNW,342,0.0,2.0,81,0.00,,,0.14,Wunderground v.1.13,2013-02-14 02:20:00,
2013-02-13 21:25:00,62.4,56.5,29.95,NNW,341,0.0,0.0,81,0.00,,,0.14,Wunderground v.1.13,2013-02-14 02:25:00,
2013-02-13 21:30:00,62.5,56.9,29.95,NNW,342,0.0,0.0,82,0.00,,,0.14,Wunderground v.1.13,2013-02-14 02:30:00,
2013-02-13 21:35:00,62.6,57.0,29.96,NNW,341,0.0,0.0,82,0.00,,,0.14,Wunderground v.1.13,2013-02-14 02:35:00,
2013-02-13 21:40:00,62.8,57.6,29.95,NNW,342,0.0,0.0,83,0.00,,,0.14,Wunderground v.1.13,2013-02-14 02:40:00,
2013-02-13 21:45:00,62.9,57.7,29.96,NNW,341,0.0,0.0,83,0.00,,,0.14,Wunderground v.1.13,2013-02-14 02:45:00,
2013-02-13 21:51:00,62.9,58.0,29.96,NNW,342,0.0,0.0,84,0.00,,,0.14,Wunderground v.1.13,2013-02-14 02:51:00,
2013-02-13 21:56:00,62.9,58.0,29.96,NNW,342,0.0,0.0,84,0.00,,,0.14,Wunderground v.1.13,2013-02-14 02:56:00,
2013-02-13 22:01:00,62.9,58.0,29.97,NNW,342,0.0,0.0,84,0.00,,,0.14,Wunderground v.1.13,2013-02-14 03:01:00,
2013-02-13 22:06:00,63.1,58.5,29.97,NNW,342,0.0,0.0,85,0.00,,,0.14,Wunderground v.1.13,2013-02-14 03:06:00,
2013-02-13 22:11:00,63.2,58.9,29.97,NNW,342,0.0,0.0,86,0.00,,,0.14,Wunderground v.1.13,2013-02-14 03:11:00,
2013-02-13 22:16:00,63.2,58.9,29.97,NNW,342,0.0,0.0,86,0.00,,,0.14,Wunderground v.1.13,2013-02-14 03:16:00,
2013-02-13 22:21:00,63.1,58.5,29.98,NNW,342,0.0,0.0,85,0.00,,,0.14,Wunderground v.1.13,2013-02-14 03:21:00,
2013-02-13 22:26:00,63.1,58.8,29.98,NNW,342,0.0,0.0,86,0.00,,,0.14,Wunderground v.1.13,2013-02-14 03:26:00,
2013-02-13 22:32:00,63.1,58.5,29.98,NNW,342,0.0,0.0,85,0.00,,,0.14,Wunderground v.1.13,2013-02-14 03:32:00,
2013-02-13 22:37:00,63.1,58.8,29.98,NNW,341,0.0,0.0,86,0.00,,,0.14,Wunderground v.1.13,2013-02-14 03:37:00,
2013-02-13 22:42:00,63.0,58.4,29.98,NNW,342,0.0,0.0,85,0.00,,,0.14,Wunderground v.1.13,2013-02-14 03:42:00,
2013-02-13 22:47:00,63.0,58.4,29.98,NNW,341,1.0,1.0,85,0.00,,,0.14,Wunderground v.1.13,2013-02-14 03:47:00,
2013-02-13 22:52:00,62.9,57.7,29.98,NW,323,0.0,6.0,83,0.00,,,0.14,Wunderground v.1.13,2013-02-14 03:52:00,
2013-02-13 22:57:00,63.0,57.1,29.97,NW,321,4.0,6.0,81,0.00,,,0.14,Wunderground v.1.13,2013-02-14 03:57:00,
2013-02-13 23:02:00,63.1,56.8,29.98,NW,321,1.0,5.0,80,0.00,,,0.14,Wunderground v.1.13,2013-02-14 04:02:00,
2013-02-13 23:07:00,63.2,56.9,30.00,NW,321,2.0,4.0,80,0.00,,,0.14,Wunderground v.1.13,2013-02-14 04:07:00,
2013-02-13 23:13:00,63.2,56.6,30.00,NW,321,3.0,4.0,79,0.00,,,0.14,Wunderground v.1.13,2013-02-14 04:13:00,
2013-02-13 23:18:00,63.0,56.4,29.99,NW,321,0.0,2.0,79,0.00,,,0.14,Wunderground v.1.13,2013-02-14 04:18:00,
2013-02-13 23:23:00,62.9,56.6,29.99,NW,321,0.0,1.0,80,0.00,,,0.14,Wunderground v.1.13,2013-02-14 04:23:00,
2013-02-13 23:28:00,62.7,56.8,29.99,NW,321,1.0,1.0,81,0.00,,,0.14,Wunderground v.1.13,2013-02-14 04:28:00,
2013-02-13 23:33:00,62.3,56.0,29.99,NW,321,0.0,1.0,80,0.00,,,0.14,Wunderground v.1.13,2013-02-14 04:33:00,
2013-02-13 23:38:00,62.3,56.0,29.99,NW,322,0.0,0.0,80,0.00,,,0.14,Wunderground v.1.13,2013-02-14 04:38:00,
2013-02-13 23:44:00,62.4,55.8,30.00,NW,322,0.0,0.0,79,0.00,,,0.14,Wunderground v.1.13,2013-02-14 04:44:00,
2013-02-13 23:49:00,62.4,56.1,29.99,NW,322,0.0,0.0,80,0.00,,,0.14,Wunderground v.1.13,2013-02-14 04:49:00,
2013-02-13 23:54:00,62.2,56.0,29.99,NW,322,0.0,1.0,80,0.00,,,0.15,Wunderground v.1.13,2013-02-14 04:54:00,
2013-02-13 23:59:00,61.8,55.9,29.98,NW,322,0.0,0.0,81,0.00,,,0.15,Wunderground v.1.13,2013-02-14 04:59:00,